KK4XZ Weather Reports


Display with metric or nautical units.
time (UTC)temp
F
wind
direction
speed
MPH
gust
MPH
rain 1hr
in
rain 24hr
in
rain mn
in
humidity
%
barometer
mb
20260508062527 56 34 1.0 3.0 0.00 0.28 0.00 95 1012.3
20260508061522 56 31 1.0 3.0 0.00 0.28 0.00 95 1012.4
20260508060517 56 40 1.0 2.0 0.00 0.29 0.00 94 1012.1
20260508055532 56 32 1.0 3.0 0.00 0.30 0.00 94 1012.2
20260508054527 56 38 1.0 3.0 0.00 0.30 0.00 94 1012.2
20260508053523 56 48 1.0 2.0 0.00 0.30 0.00 94 1012.2
20260508052517 57 67 1.0 2.0 0.00 0.30 0.00 94 1012.2
20260508051533 57 60 1.0 3.0 0.00 0.30 0.00 94 1012.3
20260508050528 57 62 2.0 4.0 0.00 0.30 0.00 94 1012.3
20260508045523 57 36 2.0 4.0 0.00 0.30 0.00 93 1012.4
20260508044518 58 35 1.0 3.0 0.00 0.30 0.00 93 1012.1
20260508043533 58 30 1.0 4.0 0.00 0.30 0.00 93 1012.1
20260508042528 58 50 4.0 7.0 0.00 0.30 0.00 93 1011.9
20260508041524 58 50 2.0 6.0 0.00 0.30 0.00 92 1011.8
20260508040519 58 25 2.0 5.0 0.00 0.30 0.00 92 1011.7
20260508035534 59 11 1.0 4.0 0.00 0.30 0.30 93 1011.7
20260508034529 59 42 2.0 5.0 0.00 0.30 0.30 93 1011.8
20260508033524 60 38 3.0 8.0 0.00 0.30 0.30 94 1011.3
20260508032519 61 22 1.0 5.0 0.00 0.30 0.30 95 1011.3
20260508031534 62 344 2.0 5.0 0.00 0.30 0.30 94 1011.0
20260508030529 63 353 2.0 3.0 0.00 0.30 0.30 95 1010.9
20260508025524 63 32 0.0 2.0 0.00 0.30 0.30 95 1010.5
20260508024519 64 24 2.0 6.0 0.00 0.30 0.30 96 1010.2
20260508023535 66 21 2.0 4.0 0.00 0.30 0.30 97 1010.0
20260508022530 67 342 1.0 3.0 0.00 0.30 0.30 97 1009.5
20260508021525 66 170 0.0 2.0 0.00 0.30 0.30 96 1008.9
20260508020520 66 0.0 1.0 0.00 0.30 0.30 96 1008.9
20260508015535 66 0.0 1.0 0.00 0.30 0.30 96 1008.8
20260508014530 67 0.0 1.0 0.00 0.30 0.30 96 1008.6
20260508013525 67 0.0 1.0 0.00 0.30 0.30 96 1008.4
20260508012520 67 0.0 0.0 0.00 0.30 0.30 96 1008.1
20260508011536 68 0.0 0.0 0.00 0.30 0.30 95 1008.1
20260508010531 68 0.0 0.0 0.00 0.30 0.30 95 1008.1
20260508005526 68 0.0 1.0 0.00 0.30 0.30 94 1007.8
20260508004522 68 131 0.0 1.0 0.00 0.30 0.30 94 1007.8
20260508003516 69 44 0.0 1.0 0.00 0.30 0.30 94 1007.6
20260508002531 70 39 0.0 2.0 0.00 0.30 0.30 93 1007.4
20260508001528 70 170 1.0 2.0 0.00 0.30 0.30 92 1007.3
20260508000521 70 181 2.0 4.0 0.00 0.30 0.30 92 1007.3
20260507235516 70 188 2.0 4.0 0.00 0.30 0.30 91 1007.1
20260507234532 71 186 2.0 3.0 0.00 0.30 0.30 90 1007.0
20260507233526 71 190 2.0 4.0 0.00 0.30 0.30 90 1007.1
20260507232521 71 182 1.0 4.0 0.00 0.30 0.30 90 1007.1
20260507231537 71 179 1.0 4.0 0.00 0.30 0.30 89 1007.1
20260507230531 71 167 1.0 4.0 0.00 0.30 0.30 89 1007.2
20260507225526 71 175 2.0 4.0 0.00 0.30 0.30 88 1007.4
20260507224521 72 207 2.0 4.0 0.00 0.30 0.30 87 1007.5
20260507223516 72 201 1.0 4.0 0.00 0.30 0.30 86 1007.6
20260507222532 73 193 3.0 7.0 0.00 0.30 0.30 86 1007.6
20260507221527 73 203 2.0 5.0 0.00 0.30 0.30 86 1007.8
20260507220522 73 205 1.0 2.0 0.00 0.30 0.30 87 1007.6
20260507215517 73 238 2.0 6.0 0.00 0.30 0.30 86 1007.7
20260507214532 73 252 2.0 10.0 0.00 0.30 0.30 85 1007.7
20260507213527 72 203 2.0 7.0 0.00 0.30 0.30 85 1007.7
20260507212523 72 213 3.0 6.0 0.00 0.30 0.30 87 1007.5
20260507211518 72 207 3.0 10.0 0.00 0.30 0.30 87 1007.5
20260507210533 71 201 2.0 9.0 0.00 0.30 0.30 89 1007.1
20260507205528 71 197 2.0 6.0 0.00 0.30 0.30 92 1007.0
20260507204524 70 213 2.0 6.0 0.00 0.30 0.30 92 1007.2
20260507203518 70 206 3.0 7.0 0.00 0.30 0.30 93 1007.4
20260507202533 69 184 2.0 5.0 0.00 0.30 0.30 96 1007.4
20260507201529 68 177 1.0 4.0 0.01 0.30 0.30 96 1007.2
20260507200524 68 167 2.0 4.0 0.06 0.30 0.30 96 1007.1
20260507195519 67 334 1.0 3.0 0.14 0.30 0.30 96 1007.5
20260507194534 67 171 2.0 5.0 0.14 0.30 0.30 95 1008.0
20260507193529 67 134 0.0 2.0 0.15 0.30 0.30 95 1008.4
20260507192524 67 210 0.0 3.0 0.15 0.30 0.30 95 1008.4
20260507191519 68 134 1.0 2.0 0.15 0.29 0.29 94 1008.9
20260507190534 68 236 2.0 5.0 0.11 0.24 0.24 92 1009.0
20260507185529 69 236 1.0 4.0 0.04 0.17 0.17 91 1009.0
20260507184524 70 207 2.0 4.0 0.03 0.16 0.16 92 1009.3
20260507183519 70 190 2.0 4.0 0.02 0.15 0.15 93 1009.4
20260507182534 70 214 2.0 3.0 0.02 0.15 0.15 91 1009.7
20260507181529 71 193 1.0 4.0 0.01 0.14 0.14 89 1009.7
20260507180524 72 202 2.0 5.0 0.00 0.13 0.13 86 1009.7
20260507175519 73 221 1.0 3.0 0.00 0.13 0.13 83 1009.9
20260507174534 73 222 1.0 2.0 0.00 0.13 0.13 84 1009.6
20260507173530 73 179 2.0 4.0 0.00 0.13 0.13 83 1009.7
20260507172525 72 204 1.0 5.0 0.00 0.13 0.13 86 1010.0
20260507171519 72 183 1.0 3.0 0.00 0.13 0.13 88 1009.9
20260507170535 71 194 1.0 2.0 0.00 0.13 0.13 87 1010.1
20260507165530 71 68 0.0 4.0 0.00 0.13 0.13 88 1010.4
20260507164525 71 258 1.0 2.0 0.00 0.13 0.13 88 1010.6
20260507163520 71 234 2.0 6.0 0.00 0.13 0.13 89 1010.7
20260507162535 72 179 2.0 5.0 0.00 0.13 0.13 88 1010.1
20260507161531 72 194 3.0 10.0 0.00 0.13 0.13 89 1010.2
20260507160526 72 194 2.0 9.0 0.00 0.13 0.13 90 1010.3
20260507155521 71 182 3.0 8.0 0.00 0.13 0.13 92 1010.4
20260507154536 71 185 3.0 7.0 0.00 0.13 0.13 92 1010.6
20260507153531 71 180 4.0 6.0 0.00 0.13 0.13 91 1010.7
20260507152525 71 214 4.0 10.0 0.00 0.13 0.13 91 1010.8
20260507151520 71 213 3.0 7.0 0.00 0.13 0.13 90 1010.4
20260507150536 71 175 3.0 6.0 0.00 0.13 0.13 90 1010.2
20260507145530 72 188 3.0 7.0 0.00 0.13 0.13 90 1010.4
20260507144525 72 194 2.0 5.0 0.00 0.13 0.13 91 1010.4
20260507143521 71 245 2.0 5.0 0.00 0.13 0.13 93 1010.1
20260507142516 71 191 2.0 6.0 0.00 0.13 0.13 94 1010.3
20260507141531 70 193 2.0 4.0 0.00 0.13 0.13 94 1010.3
20260507140526 70 203 1.0 6.0 0.00 0.13 0.13 94 1010.4
20260507135521 70 183 2.0 4.0 0.00 0.13 0.13 94 1010.3
20260507134517 70 201 3.0 6.0 0.00 0.13 0.13 94 1009.8
20260507133531 71 189 4.0 7.0 0.00 0.13 0.13 94 1009.8
20260507132526 71 187 3.0 6.0 0.00 0.13 0.13 95 1010.1
20260507131521 70 193 3.0 6.0 0.00 0.13 0.13 96 1010.5
20260507130516 70 165 3.0 5.0 0.01 0.13 0.13 96 1010.9
20260507125532 70 205 1.0 4.0 0.01 0.13 0.13 97 1011.3
20260507124527 70 186 2.0 7.0 0.01 0.13 0.13 97 1012.1
20260507123522 70 205 2.0 4.0 0.01 0.13 0.13 97 1012.3
20260507122517 70 107 0.0 3.0 0.01 0.13 0.13 97 1011.6
20260507121532 70 202 1.0 3.0 0.00 0.12 0.12 97 1012.1
20260507120528 70 175 1.0 3.0 0.00 0.12 0.12 97 1011.9
20260507115523 70 184 1.0 3.0 0.00 0.12 0.12 97 1012.0
20260507114518 70 236 1.0 3.0 0.00 0.12 0.12 96 1011.7
20260507113533 70 175 1.0 4.0 0.00 0.12 0.12 96 1011.9
20260507112528 70 193 2.0 6.0 0.00 0.12 0.12 97 1012.5
20260507111523 70 210 2.0 4.0 0.00 0.12 0.12 96 1012.6
20260507110518 70 158 1.0 3.0 0.01 0.12 0.12 96 1012.5
20260507105534 70 182 2.0 4.0 0.02 0.12 0.12 96 1012.5
20260507104528 70 183 2.0 7.0 0.02 0.12 0.12 96 1012.4
20260507103524 70 201 3.0 6.0 0.03 0.12 0.12 96 1012.5
20260507102518 70 188 2.0 4.0 0.04 0.12 0.12 96 1012.3
20260507101533 70 202 2.0 4.0 0.04 0.12 0.12 96 1012.1
20260507100529 70 198 2.0 5.0 0.03 0.11 0.11 95 1012.0
20260507095524 70 215 2.0 4.0 0.02 0.10 0.10 95 1012.1
20260507094519 71 185 3.0 7.0 0.02 0.09 0.09 95 1011.9
20260507093534 70 176 3.0 8.0 0.01 0.09 0.09 94 1011.9
20260507092529 70 195 2.0 5.0 0.00 0.08 0.08 94 1011.6
20260507091524 70 193 3.0 8.0 0.00 0.08 0.08 94 1011.3
20260507090520 70 190 4.0 10.0 0.00 0.08 0.08 94 1011.2
20260507085534 70 174 3.0 6.0 0.00 0.08 0.08 93 1011.4
20260507084529 70 194 3.0 6.0 0.00 0.08 0.08 93 1011.3
20260507083524 70 185 3.0 6.0 0.00 0.08 0.08 93 1011.3
20260507082519 70 204 3.0 7.0 0.00 0.08 0.08 94 1011.2
20260507081535 70 190 2.0 5.0 0.00 0.08 0.08 95 1011.3
20260507080530 69 189 3.0 5.0 0.01 0.08 0.08 95 1011.3
20260507075525 69 174 3.0 9.0 0.01 0.07 0.07 95 1011.2
20260507074520 69 199 2.0 6.0 0.02 0.07 0.07 95 1010.7
20260507073535 69 191 2.0 4.0 0.04 0.07 0.07 96 1010.7
20260507072529 69 184 2.0 5.0 0.05 0.07 0.07 96 1011.0
20260507071525 69 192 2.0 5.0 0.06 0.07 0.07 96 1010.9
20260507070520 69 187 2.0 4.0 0.06 0.07 0.07 95 1011.3
20260507065535 69 206 0.0 2.0 0.06 0.07 0.07 95 1011.7
20260507064530 70 180 2.0 6.0 0.06 0.06 0.06 95 1012.1
20260507063525 70 165 1.0 3.0 0.04 0.04 0.04 94 1012.9